Location: Borbetomagus
(49.6328°N, 8.3592°E)
Time: 00:30:10
(UTC+00:00)

ARIANE 6 FM1 Upper Stage - Pass Details

Date: 19 May 2025
Orbit: 531 x 610 km, 62.0° (Epoch: 15 June)

Event Time Altitude Azimuth Distance (km) Brightness Sun altitude
Rises 20:17:33 0° 218° (SW) 2,663 6.0 -9.2°
Reaches altitude 10° 20:19:44 10° 216° (SW) 1,776 5.1 -9.4°
Maximum altitude 20:23:42 72° 132° (SE) 565 2.5 -9.9°
Drops below altitude 10° 20:27:43 10° 48° (NE) 1,802 5.3 -10.3°
Sets 20:29:57 0° 47° (NE) 2,706 6.2 -10.5°
